Wind_Speed
27 29 29 29 29 30 30 30 30 30 30 30 29 28 29 30 28 30 29 27 29 27 29 32 38 33 29 29 31 35 31 26 10 8 23 29 44 45 43 43 39 35 30
28 29 28 28 27 28 29 29 26 30 32 31 29 29 28 26 25 23 26 26 30 25 33 31 37 31 31 27 24 21 26 24 11 12 21 26 35 43 46 39 36 33 30
28 27 28 26 26 28 29 28 27 26 28 30 29 28 29 31 31 31 24 26 32 31 36 36 34 35 33 33 30 27 22 18 18 16 10 19 24 35 37 36 34 28 24
27 26 25 26 27 27 27 24 20 16 17 23 28 29 28 29 30 32 31 30 32 33 38 38 34 36 35 35 32 30 26 22 20 23 21 22 23 29 29 30 28 27 26
27 26 26 26 25 25 24 23 22 16 10 7 12 20 25 27 30 30 28 26 30 30 28 31 33 34 33 35 33 30 30 24 23 21 17 18 18 28 28 22 21 27 21
27 26 28 26 26 26 25 23 25 25 22 16 10 6 4 11 16 20 23 27 28 30 28 27 27 27 27 24 25 27 30 33 20 16 11 19 20 27 24 27 27 15 5
26 27 27 27 25 25 25 25 26 27 27 26 24 21 22 21 17 17 23 26 26 29 31 33 29 28 27 26 24 23 21 19 22 28 27 22 27 28 33 30 26 19 9
22 24 25 26 24 25 25 27 26 27 30 29 30 27 24 25 28 28 32 34 33 32 29 31 36 34 33 30 27 25 21 18 18 20 24 27 25 33 33 30 30 23 16
21 23 24 23 22 24 25 25 25 27 30 30 32 31 29 30 30 34 35 29 34 32 31 28 29 36 31 31 34 31 27 21 15 16 18 22 21 30 33 33 30 26 5
18 19 20 20 22 22 25 25 26 24 28 30 33 33 33 36 34 32 36 31 31 28 31 28 28 35 29 28 34 34 30 24 29 30 28 25 22 21 24 26 31 26 11
13 14 18 20 23 24 26 27 27 27 29 30 34 37 37 35 35 31 31 30 25 27 26 27 29 28 23 23 26 29 31 31 29 33 31 29 25 21 19 18 22 20 12
10 14 17 19 22 23 25 27 29 28 28 28 27 28 32 34 34 31 28 28 27 32 29 27 26 24 23 24 26 26 29 31 32 32 31 27 25 22 20 18 16 13 9
9 13 15 18 20 23 25 26 26 27 21 19 21 20 23 28 28 27 26 27 28 34 30 27 25 27 25 27 23 24 26 26 29 30 27 25 22 20 18 15 13 11 9
6 9 12 14 17 19 21 22 24 23 22 19 17 17 20 25 24 22 22 23 25 28 27 26 24 24 24 22 23 22 21 20 21 24 22 21 19 16 15 13 12 11 9
1 4 7 9 11 14 18 17 18 17 17 18 16 16 20 19 14 15 17 18 19 19 20 21 22 22 20 20 19 18 17 14 15 16 18 18 18 16 15 13 11 13 8
5 1 2 3 6 8 10 13 12 12 11 13 12 12 15 13 13 13 13 14 14 12 15 16 17 15 15 15 15 15 13 11 10 10 12 13 14 15 15 15 12 12 12
9 7 5 4 3 2 2 3 4 6 10 11 10 10 10 9 9 9 9 8 6 5 10 11 11 10 9 9 8 9 11 10 10 9 9 11 12 12 13 14 15 15 15
15 14 13 11 8 5 3 3 3 4 3 4 7 7 5 4 5 5 5 6 2 2 1 1 2 4 6 7 8 8 9 10 10 11 11 12 13 15 18 19 20 20 19
19 18 15 13 11 9 8 6 5 2 1 2 2 2 2 3 2 2 3 3 5 6 5 4 4 6 7 8 9 10 11 13 14 15 16 16 17 19 21 21 20 20 19
22 19 17 15 13 12 10 9 7 6 4 3 3 3 2 2 4 7 9 10 10 10 10 10 9 9 10 10 10 11 12 13 15 17 18 18 18 20 23 23 22 21 21
27 23 21 19 18 16 15 13 10 9 9 6 5 6 7 7 8 9 10 12 14 15 16 16 16 16 15 16 16 17 17 18 18 19 20 20 20 22 22 22 21 21 19
29 27 25 25 22 19 18 15 14 13 12 11 10 9 9 10 12 12 13 13 14 14 12 14 14 15 15 16 16 17 19 20 19 19 20 19 20 21 21 21 21 20 20
28 26 24 23 22 19 18 17 17 17 17 17 14 12 11 12 12 13 14 15 14 14 14 14 14 14 13 13 13 15 17 17 16 15 15 16 16 17 17 17 17 17 18
28 27 26 25 23 22 21 19 18 18 19 19 18 16 14 12 11 12 13 14 14 14 13 12 12 12 11 11 12 12 13 13 13 13 13 13 13 13 13 14 15 15 15
27 27 26 26 24 22 20 19 19 19 18 18 19 18 15 12 10 10 11 14 15 12 10 10 10 9 9 9 9 10 9 9 10 10 10 10 11 11 12 12 12 12 12
24 25 25 22 20 19 18 16 15 15 16 18 16 12 9 8 8 10 11 11 10 8 7 6 7 7 8 8 9 9 9 9 8 9 9 9 10 11 11 11 11 12 12
Wind_Direction
317 312 308 306 304 300 293 294 271 260 251 249 246 246 247 248 245 241 239 241 245 226 225 204 210 205 201 201 204 194 197 195 189 162 186 185 180 180 175 178 174 175 172
319 315 313 312 312 307 302 299 296 264 254 245 241 237 241 243 248 252 245 241 248 242 213 200 195 189 192 198 202 200 202 203 183 152 164 170 180 182 179 177 175 176 172
322 321 319 321 322 318 315 316 314 296 263 245 237 233 238 248 244 241 250 239 242 246 220 207 197 195 185 189 190 186 188 189 188 140 122 151 153 169 163 167 174 174 174
327 326 325 331 335 332 333 339 333 322 293 254 240 240 243 239 245 250 246 242 243 234 216 209 202 193 184 181 179 183 174 157 148 138 133 143 146 156 159 155 158 173 169
330 331 331 342 349 353 355 358 0 9 359 310 260 244 242 243 244 240 237 224 205 191 188 183 188 191 187 185 178 167 166 155 146 139 137 149 145 158 170 169 153 163 168
341 335 344 354 359 359 359 9 23 23 27 43 56 88 171 234 237 224 206 177 167 154 143 151 157 166 169 172 178 181 185 166 145 140 149 155 160 161 160 156 146 147 151
348 348 352 1 1 7 9 14 23 28 32 34 40 56 73 81 111 123 138 135 126 127 130 131 130 138 141 139 139 149 151 153 176 176 158 160 158 164 156 154 161 155 144
354 355 0 5 4 12 19 22 24 38 41 39 40 47 62 76 90 95 106 110 104 106 108 117 125 131 131 134 137 127 137 151 177 179 173 168 168 168 168 166 160 147 136
5 5 3 14 16 22 23 22 28 40 47 46 46 47 52 56 70 92 98 88 89 91 111 119 122 119 128 138 136 124 113 109 128 145 151 160 157 170 176 169 160 147 108
13 17 16 28 32 30 37 30 36 44 51 50 51 50 55 55 62 74 89 77 80 83 85 89 101 110 122 133 133 123 107 111 114 113 112 118 131 140 167 181 172 158 129
19 33 35 36 46 53 56 52 47 47 52 53 55 49 51 60 61 71 86 89 87 84 82 76 80 94 107 116 130 126 120 129 120 125 126 129 135 143 153 169 179 185 162
38 43 41 42 48 50 56 60 59 56 55 52 54 53 55 57 65 69 78 89 94 89 83 87 94 97 101 109 112 114 126 129 128 126 127 128 130 134 137 149 164 175 187
40 51 54 58 57 59 59 61 61 65 57 55 57 59 59 73 77 79 82 86 86 89 90 92 96 100 102 95 101 124 128 130 130 130 133 135 137 143 147 153 161 165 165
46 55 61 65 67 68 69 71 72 72 69 62 64 67 68 71 80 86 92 97 103 104 104 101 102 102 97 109 123 129 133 132 132 136 138 139 148 151 162 171 172 172 173
62 72 66 64 63 69 66 60 71 70 75 84 76 77 83 72 70 92 99 103 106 105 105 109 109 112 115 120 124 127 124 129 137 144 153 156 163 173 181 187 193 190 187
244 198 91 78 85 84 89 91 75 74 70 66 73 77 79 81 87 95 100 106 106 102 108 118 120 127 126 132 134 134 143 146 153 164 167 179 184 190 196 199 205 210 214
221 227 224 217 209 173 95 28 66 75 79 66 66 78 79 80 76 89 101 108 111 130 132 136 141 146 148 153 157 163 174 181 189 189 191 197 200 204 211 218 224 228 229
214 211 209 209 214 226 268 321 360 4 22 60 73 69 73 72 81 93 127 158 119 71 54 215 206 204 211 219 221 222 222 220 223 227 229 230 227 224 220 225 227 231 235
223 224 223 223 221 220 224 228 229 251 359 30 11 55 95 140 164 184 209 248 253 271 276 266 259 247 243 246 247 247 246 245 242 240 240 238 238 235 238 239 239 237 237
230 236 234 232 232 235 243 253 265 280 295 312 330 353 330 283 236 226 233 251 261 270 275 279 279 277 273 269 263 258 253 247 245 245 247 246 245 241 241 242 239 234 234
227 228 230 231 232 234 239 242 248 252 257 264 290 314 302 286 285 276 273 270 274 278 281 281 279 274 270 267 264 261 261 260 256 255 253 251 249 244 245 245 246 243 240
228 230 230 230 233 232 235 239 243 246 248 249 266 281 280 261 273 278 281 283 284 285 287 285 280 275 274 270 268 265 263 262 262 261 260 259 256 253 251 247 242 235 231
228 232 235 238 239 241 241 242 243 244 245 248 257 261 261 260 268 277 285 288 286 284 283 281 278 275 272 269 266 266 265 269 275 276 270 264 256 249 244 240 232 218 220
226 229 233 237 235 233 235 238 241 246 251 255 258 259 258 260 271 282 284 280 289 290 286 282 279 279 276 270 266 264 268 271 271 270 266 257 251 244 237 231 228 226 225
225 229 234 237 237 237 239 242 247 251 254 258 262 266 261 260 256 264 276 292 298 291 285 278 276 276 276 277 278 275 272 266 263 258 249 244 239 232 224 218 213 210 209
222 229 236 237 240 242 242 242 242 250 261 267 265 253 239 242 271 287 295 293 292 292 290 283 279 278 278 275 276 275 268 261 250 242 235 226 219 211 206 205 203 205 209
Height
697 690 682 674 666 660 653 644 637 634 634 634 634 635 636 637 638 639 641 643 645 643 645 646 659 663 669 676 680 678 682 693 699 715 722 728 736 746 752 757 763 768 772
694 686 678 670 662 654 646 637 631 626 623 624 625 626 628 629 631 633 634 636 638 638 640 644 648 652 662 671 677 681 682 687 696 701 715 725 730 739 745 754 762 766 770
691 683 675 667 658 651 642 632 625 619 615 614 616 617 619 621 623 626 628 630 631 632 634 639 640 647 654 664 671 676 681 686 693 699 709 719 729 735 743 750 758 767 771
690 682 674 665 657 649 640 631 621 613 609 607 607 608 610 613 615 619 622 623 624 626 628 632 638 642 648 658 664 671 678 687 693 701 709 718 727 737 744 749 755 765 769
689 682 674 665 656 648 639 631 622 613 608 605 603 603 603 604 607 610 612 614 617 619 623 626 633 640 647 657 662 669 675 684 692 700 706 716 723 730 738 747 753 761 769
689 682 675 666 658 650 641 633 624 617 612 607 604 602 600 600 602 603 605 609 613 615 621 628 634 644 652 657 662 669 675 681 691 699 706 710 719 725 733 742 750 762 771
690 684 677 669 662 654 647 639 630 624 619 615 611 607 605 604 604 606 609 611 615 619 624 627 640 645 647 659 665 672 679 684 692 694 700 708 715 720 728 739 748 756 762
691 687 680 673 666 659 652 645 639 632 627 624 621 618 616 615 612 613 614 617 620 626 632 637 641 652 648 656 667 671 684 690 695 698 700 706 712 719 729 737 746 756 763
692 688 684 678 672 665 659 653 648 642 635 634 632 629 627 625 621 619 621 628 629 635 639 649 653 646 654 664 673 683 686 695 697 700 704 712 719 723 729 738 749 755 765
696 692 688 682 676 671 666 661 657 652 648 645 640 639 637 634 634 631 632 635 641 651 655 661 661 654 666 675 680 683 686 697 701 706 711 720 727 732 737 744 749 754 760
700 696 691 686 681 677 673 668 663 660 656 654 652 651 648 649 649 647 645 653 656 659 665 668 666 669 681 685 692 692 692 700 705 710 716 723 732 739 742 747 752 755 758
702 698 695 691 687 683 678 674 671 668 666 665 664 665 665 664 664 666 667 668 669 666 669 678 686 691 696 697 698 700 700 704 708 716 723 730 736 742 746 750 754 756 759
704 700 697 695 693 690 686 683 680 677 676 675 675 676 676 676 676 677 680 681 680 679 682 687 694 700 704 699 704 709 708 713 715 721 729 736 738 743 745 749 754 757 760
705 703 700 699 697 695 693 691 689 687 685 683 683 684 684 684 683 684 685 688 690 690 693 699 701 699 694 704 712 715 718 719 720 727 732 735 739 740 746 751 755 756 758
706 705 703 702 701 699 697 696 694 694 694 693 692 693 693 694 696 696 696 696 698 699 698 699 701 707 715 717 719 719 718 722 724 729 733 734 738 742 746 750 753 754 755
705 705 704 704 702 700 699 698 698 698 698 697 697 696 695 696 697 698 700 701 700 702 704 707 709 712 715 717 717 717 722 725 729 732 734 737 739 742 745 748 750 752 753
702 703 703 703 703 702 702 702 701 702 701 702 702 702 702 702 702 703 704 705 708 711 712 713 714 714 716 719 720 722 725 728 732 733 734 737 740 742 744 746 748 749 751
697 696 695 697 699 701 702 704 704 704 703 704 705 705 706 707 708 710 711 711 711 712 712 713 715 717 719 720 722 723 726 729 730 732 734 737 739 741 742 743 745 745 747
696 697 697 697 697 698 698 698 699 700 702 704 705 706 707 708 710 711 711 711 713 714 715 716 717 718 719 721 722 724 726 727 730 731 733 734 734 735 736 738 740 741 743
693 695 697 698 698 699 700 701 702 703 703 703 704 705 706 707 708 709 710 711 712 713 714 715 716 717 718 718 719 720 721 722 724 725 726 727 728 730 731 733 735 736 737
686 689 690 692 694 695 697 698 700 701 701 702 703 704 704 704 705 706 707 708 708 709 709 710 711 712 713 714 715 715 715 716 717 719 720 720 721 723 724 726 728 730 731
680 682 685 687 689 691 693 695 697 698 699 700 700 701 702 702 703 703 703 703 704 703 703 703 703 704 705 706 707 707 708 708 709 711 712 713 714 716 717 719 720 722 724
675 679 682 685 688 690 691 692 694 694 694 695 695 696 696 697 697 697 698 699 699 699 698 698 697 698 698 699 700 702 702 702 703 704 704 706 708 709 710 712 714 716 718
667 671 674 677 680 682 684 687 688 690 692 692 692 692 692 692 693 694 694 694 693 693 693 693 693 692 693 694 694 695 696 697 698 698 700 701 702 704 705 707 708 710 714
661 665 668 672 674 677 680 682 684 686 687 688 688 688 688 688 689 689 690 692 691 689 688 688 688 688 688 689 689 690 691 692 693 694 695 696 698 699 701 703 705 708 710
654 658 663 666 670 673 675 677 679 680 682 682 682 682 683 685 685 686 686 685 686 686 685 684 685 684 685 685 685 685 686 687 688 690 691 693 695 697 699 700 703 705 707